Bergen Op Zoom, Netherlands

2:03 AM CET on February 28, 2017 (GMT +0100)
Woensdrecht Air Base

Weather History for EHWO - January, 2014

Change the Weather History Date:

Thursday, January 16, 2014

  Actual Average Record
Temperature  
Mean Temperature 46 °F -  
Max Temperature 49 °F 42 °F 55 °F (2011)
Min Temperature 43 °F 34 °F 10 °F (2013)
Degree Days  
Heating Degree Days 19    
Moisture  
Dew Point 44 °F    
Average Humidity 88    
Maximum Humidity 100    
Minimum Humidity 76    
Precipitation  
Precipitation 0.00 in - - ()
Sea Level Pressure  
Sea Level Pressure 29.43 in    
Wind  
Wind Speed 9 mph ()    
Max Wind Speed 12 mph    
Max Gust Speed 24 mph    
Visibility 6.5 miles    
Events Rain    
Averages and records for this station are not official NWS values.
T = Trace of Precipitation, MM = Missing Value Source: Averaged Metar Reports

Daily Weather History Graph

Daily Weather History Graph

Search for Another Location

Airport or City:

Trip Planner

Search our weather history database for the weather conditions in past years. The results will help you decide how hot, cold, wet, or windy it might be!

Date:

Astronomy

Jan. 16, 2014 Rise Set
Actual Time 8:40 AM CET 5:04 PM CET
Civil Twilight 8:02 AM CET 5:43 PM CET
Nautical Twilight 7:20 AM CET 6:24 PM CET
Astronomical Twilight 6:40 AM CET 7:04 PM CET
Moon 5:53 PM CET (1/16) 8:15 AM CET (1/16)
Length of Visible Light 9h 40m
Length of Day
8h 24m
Full, 100% of the Moon is Illuminated
Jan 16
Full
Jan 24
Last Quarter
Jan 30
New
Feb 6
First Quarter
Feb 15
Full

Hourly Weather History & Observations

Time (CET) Temp. Windchill Dew Point Humidity Pressure Visibility Wind Dir Wind Speed Gust Speed Precip Events Conditions
12:00 AM 46 °F - 44 °F 91% 29.55 in 5 mi South 8.9 mph - - Rain Rain
12:05 AM 46.4 °F 41.5 °F 44.6 °F 93% 29.53 in 5.0 mi South 10.4 mph - N/A   Overcast
12:25 AM 46.4 °F 41.9 °F 44.6 °F 93% 29.53 in 5.6 mi South 9.2 mph - N/A   Overcast
12:29 AM 46.4 °F 41.5 °F 44.6 °F 93% 29.53 in 5.6 mi South 10.4 mph - N/A   Overcast
12:55 AM 46.4 °F 41.5 °F 44.6 °F 93% 29.53 in 6.2 mi South 10.4 mph - N/A   Overcast
1:00 AM 47 °F - 45 °F 89% 29.55 in 7 mi South 11.2 mph - -   Partly Cloudy
1:25 AM 46.4 °F 41.9 °F 44.6 °F 93% 29.53 in 6.2 mi South 9.2 mph - N/A   Overcast
1:55 AM 48.2 °F - 44.6 °F 87% 29.50 in 6.2 mi South 10.4 mph - N/A   Overcast
2:00 AM 47 °F - 45 °F 90% 29.54 in 9 mi South 11.2 mph - -   Overcast
2:25 AM 48.2 °F - 44.6 °F 87% 29.53 in 6.2 mi South 10.4 mph - N/A   Overcast
2:55 AM 48.2 °F - 44.6 °F 87% 29.53 in 6.2 mi South 9.2 mph - N/A   Overcast
3:00 AM 48 °F - 45 °F 87% 29.53 in 11 mi South 8.9 mph - -   Overcast
3:25 AM 48.2 °F - 44.6 °F 87% 29.50 in 6.2 mi South 6.9 mph - N/A   Overcast
3:55 AM 48.2 °F - 44.6 °F 87% 29.50 in 6.2 mi South 10.4 mph - N/A   Overcast
4:00 AM 48 °F - 45 °F 86% 29.52 in 16 mi South 8.9 mph - -   Overcast
4:25 AM 48.2 °F - 44.6 °F 87% 29.50 in 6.2 mi South 10.4 mph - N/A   Overcast
4:55 AM 48.2 °F - 44.6 °F 87% 29.50 in 6.2 mi South 10.4 mph - N/A Rain Light Rain
5:00 AM 48 °F - 45 °F 87% 29.50 in 11 mi South 8.9 mph - - Rain Rain
5:10 AM 48.2 °F - 46.4 °F 93% 29.47 in 6.2 mi South 10.4 mph - N/A Rain Light Drizzle
5:19 AM 48.2 °F - 46.4 °F 93% 29.47 in 6.2 mi South 10.4 mph - N/A   Overcast
5:25 AM 48.2 °F - 46.4 °F 93% 29.47 in 6.2 mi South 10.4 mph - N/A   Overcast
5:55 AM 48.2 °F - 46.4 °F 93% 29.47 in 6.2 mi South 9.2 mph - N/A   Overcast
6:00 AM 49 °F - 46 °F 83% 29.49 in 12 mi South 8.9 mph - - Rain Light Rain Showers
6:09 AM 48.2 °F - 46.4 °F 93% 29.47 in 6.2 mi South 10.4 mph - N/A Rain Heavy Drizzle
6:18 AM 48.2 °F - 46.4 °F 93% 29.47 in 6.2 mi South 11.5 mph - N/A Rain Light Rain
6:25 AM 48.2 °F - 46.4 °F 93% 29.47 in 6.2 mi South 10.4 mph 21.9 mph N/A   Drizzle
6:55 AM 48.2 °F - 44.6 °F 87% 29.47 in 6.2 mi South 9.2 mph - N/A   Overcast
6:59 AM 48.2 °F - 44.6 °F 87% 29.47 in 6.2 mi South 9.2 mph - N/A   Overcast
7:00 AM 49 °F - 45 °F 83% 29.48 in 25 mi South 11.2 mph - - Rain Rain
7:06 AM 48.2 °F - 44.6 °F 87% 29.47 in 6.2 mi South 10.4 mph - N/A   Overcast
7:12 AM 48.2 °F - 44.6 °F 87% 29.47 in 6.2 mi South 9.2 mph - N/A   Overcast
7:13 AM 50.0 °F - 44.6 °F 82% 29.47 in 6.2 mi South 10.4 mph - N/A   Overcast
7:20 AM 50.0 °F - 44.6 °F 82% 29.47 in 6.2 mi South 11.5 mph 23.0 mph N/A   Overcast
7:25 AM 50.0 °F - 44.6 °F 82% 29.47 in 6.2 mi South 11.5 mph 23.0 mph N/A   Overcast
7:50 AM 50.0 °F - 44.6 °F 82% 29.44 in 6.2 mi South 11.5 mph 24.2 mph N/A   Mostly Cloudy
7:55 AM 50.0 °F - 44.6 °F 82% 29.44 in 6.2 mi South 10.4 mph - N/A   Mostly Cloudy
7:56 AM 50.0 °F - 44.6 °F 82% 29.44 in 6.2 mi South 10.4 mph - N/A   Mostly Cloudy
8:00 AM 49 °F - 45 °F 82% 29.47 in 28 mi South 11.2 mph - -   Overcast
8:03 AM 50.0 °F - 44.6 °F 82% 29.44 in 6.2 mi South 10.4 mph - N/A   Mostly Cloudy
8:16 AM 50.0 °F - 44.6 °F 82% 29.44 in 6.2 mi South 11.5 mph - N/A   Overcast
8:25 AM 50.0 °F - 44.6 °F 82% 29.44 in 6.2 mi South 10.4 mph 21.9 mph N/A   Overcast
8:33 AM 50.0 °F - 44.6 °F 82% 29.44 in 6.2 mi South 8.1 mph - N/A   Overcast
8:34 AM 48.2 °F - 44.6 °F 87% 29.44 in 6.2 mi South 8.1 mph - N/A Rain Light Rain
8:55 AM 48.2 °F - 44.6 °F 87% 29.44 in 6.2 mi South 8.1 mph - N/A   Overcast
8:56 AM 48.2 °F - 44.6 °F 87% 29.44 in 6.2 mi South 8.1 mph - N/A   Overcast
9:00 AM 49 °F - 45 °F 82% 29.47 in 22 mi South 8.9 mph - - Rain Light Rain Showers
9:04 AM 48.2 °F - 44.6 °F 87% 29.44 in 6.2 mi South 8.1 mph - N/A Rain Light Rain
9:08 AM 48.2 °F - 44.6 °F 87% 29.44 in 6.2 mi South 8.1 mph - N/A   Light Drizzle
9:25 AM 48.2 °F - 44.6 °F 87% 29.44 in 6.2 mi South 8.1 mph - N/A   Light Drizzle
9:55 AM 48.2 °F - 46.4 °F 93% 29.44 in 6.2 mi South 8.1 mph - N/A   Light Drizzle
10:00 AM 49 °F - 46 °F 83% 29.47 in 22 mi South 6.7 mph - - Rain Light Drizzle
10:25 AM 48.2 °F - 44.6 °F 87% 29.44 in 6.2 mi South 6.9 mph - N/A   Overcast
10:55 AM 50.0 °F - 44.6 °F 82% 29.44 in 6.2 mi South 9.2 mph - N/A   Overcast
11:00 AM 49 °F - 45 °F 81% 29.45 in 25 mi South 8.9 mph - - Rain Drizzle
11:11 AM 50.0 °F - 44.6 °F 82% 29.44 in 6.2 mi South 9.2 mph - N/A   Overcast
11:16 AM 50.0 °F - 44.6 °F 82% 29.44 in 6.2 mi South 8.1 mph - N/A   Overcast
11:25 AM 50.0 °F - 44.6 °F 82% 29.44 in 6.2 mi South 8.1 mph - N/A   Overcast
11:26 AM 50.0 °F - 44.6 °F 82% 29.44 in 6.2 mi South 8.1 mph - N/A   Overcast
11:31 AM 48.2 °F - 44.6 °F 87% 29.44 in 6.2 mi South 8.1 mph - N/A Rain Light Rain
11:39 AM 48.2 °F - 44.6 °F 87% 29.42 in 6.2 mi South 8.1 mph - N/A Rain Drizzle
11:55 AM 48.2 °F - 46.4 °F 93% 29.42 in 6.2 mi South 9.2 mph - N/A   Light Drizzle
11:57 AM 48.2 °F - 46.4 °F 93% 29.42 in 6.2 mi South 8.1 mph - N/A Rain Drizzle
12:00 PM 48 °F - 46 °F 89% 29.44 in 7 mi South 8.9 mph - - Rain Heavy Rain
12:00 PM 48.2 °F - 46.4 °F 93% 29.42 in 6.2 mi South 9.2 mph - N/A Rain Light Rain
12:06 PM 48.2 °F - 46.4 °F 93% 29.42 in 4.3 mi South 9.2 mph - N/A Rain Light Rain
12:11 PM 48.2 °F - 46.4 °F 93% 29.42 in 4.3 mi South 8.1 mph - N/A Rain Rain
12:25 PM 48.2 °F - 46.4 °F 93% 29.42 in 5.0 mi South 8.1 mph - N/A Rain Light Rain Showers
12:34 PM 46.4 °F 42.9 °F 46.4 °F 100% 29.42 in 5.6 mi South 6.9 mph - N/A Rain Rain
12:43 PM 46.4 °F 42.9 °F 46.4 °F 100% 29.42 in 6.2 mi South 6.9 mph - N/A Rain Light Rain
12:47 PM 46.4 °F 42.4 °F 46.4 °F 100% 29.42 in 6.2 mi South 8.1 mph - N/A Rain Rain
12:55 PM 46.4 °F 42.9 °F 46.4 °F 100% 29.42 in 6.2 mi South 6.9 mph - N/A Rain Rain
1:00 PM 47 °F - 46 °F 95% 29.42 in 7 mi South 6.7 mph - - Rain Rain
1:02 PM 46.4 °F 42.9 °F 46.4 °F 100% 29.42 in 6.2 mi South 6.9 mph - N/A Rain Light Rain
1:06 PM 46.4 °F 42.9 °F 46.4 °F 100% 29.42 in 6.2 mi South 6.9 mph - N/A Rain Rain
1:18 PM 48.2 °F - 46.4 °F 93% 29.39 in 6.2 mi South 9.2 mph - N/A Rain Light Rain
1:25 PM 48.2 °F - 46.4 °F 93% 29.39 in 6.2 mi South 9.2 mph - N/A Rain Light Rain
1:27 PM 48.2 °F - 46.4 °F 93% 29.39 in 6.2 mi South 8.1 mph - N/A Rain Light Drizzle
1:33 PM 48.2 °F - 46.4 °F 93% 29.39 in 6.2 mi South 8.1 mph - N/A   Drizzle
1:37 PM 48.2 °F - 44.6 °F 87% 29.39 in 6.2 mi South 8.1 mph - N/A   Drizzle
1:55 PM 48.2 °F - 44.6 °F 87% 29.39 in 6.2 mi SSW 11.5 mph - N/A   Drizzle
1:59 PM 46.4 °F 41.9 °F 44.6 °F 93% 29.39 in 6.2 mi SSW 9.2 mph - N/A   Drizzle
2:00 PM 47 °F - 45 °F 88% 29.40 in 11 mi SSW 8.9 mph - - Rain Drizzle
2:01 PM 46.4 °F 41.9 °F 44.6 °F 93% 29.39 in 6.2 mi SSW 9.2 mph - N/A   Drizzle
2:07 PM 46.4 °F 41.5 °F 44.6 °F 93% 29.39 in 6.2 mi SSW 10.4 mph - N/A   Overcast
2:09 PM 46.4 °F 41.1 °F 44.6 °F 93% 29.39 in 6.2 mi SSW 11.5 mph - N/A   Overcast
2:15 PM 46.4 °F 41.1 °F 44.6 °F 93% 29.39 in 6.2 mi SW 11.5 mph - N/A Rain Drizzle
2:25 PM 46.4 °F 41.1 °F 44.6 °F 93% 29.39 in 6.2 mi SW 11.5 mph - N/A Rain Light Rain
2:28 PM 46.4 °F 41.5 °F 44.6 °F 93% 29.39 in 6.2 mi SW 10.4 mph - N/A Rain Light Rain Showers
2:37 PM 46.4 °F 41.9 °F 44.6 °F 93% 29.39 in 6.2 mi SW 9.2 mph - N/A Rain Light Rain
2:55 PM 46.4 °F 41.5 °F 42.8 °F 87% 29.39 in 6.2 mi SW 10.4 mph - N/A Rain Light Rain
3:00 PM 46 °F - 43 °F 87% 29.41 in 16 mi SW 11.2 mph - - Rain Light Rain
3:04 PM 46.4 °F 41.1 °F 42.8 °F 87% 29.39 in 6.2 mi SW 11.5 mph - N/A Rain Heavy Drizzle
3:10 PM 46.4 °F 41.5 °F 42.8 °F 87% 29.39 in 6.2 mi SW 10.4 mph - N/A Rain Light Rain
3:21 PM 46.4 °F 41.9 °F 42.8 °F 87% 29.39 in 6.2 mi SW 9.2 mph - N/A Rain Drizzle
3:22 PM 46.4 °F 41.9 °F 42.8 °F 87% 29.39 in 6.2 mi SW 9.2 mph - N/A   Drizzle
3:25 PM 46.4 °F 41.9 °F 42.8 °F 87% 29.39 in 6.2 mi SW 9.2 mph - N/A   Drizzle
3:55 PM 44.6 °F 40.7 °F 42.8 °F 93% 29.39 in 6.2 mi SW 6.9 mph - N/A   Mostly Cloudy
4:00 PM 45 °F - 43 °F 88% 29.42 in 28 mi SW 6.7 mph - - Rain Rain
4:25 PM 44.6 °F 40.7 °F 41.0 °F 87% 29.39 in 6.2 mi SSW 6.9 mph - N/A   Overcast
4:55 PM 44.6 °F 41.4 °F 42.8 °F 93% 29.39 in 6.2 mi South 5.8 mph - N/A   Overcast
5:00 PM 45 °F - 42 °F 86% 29.41 in 28 mi South 4.5 mph - -   Partly Cloudy
5:25 PM 44.6 °F 41.4 °F 41.0 °F 87% 29.39 in 6.2 mi South 5.8 mph - N/A   Overcast
5:39 PM 44.6 °F 40.7 °F 41.0 °F 87% 29.39 in 6.2 mi South 6.9 mph - N/A   Mostly Cloudy
5:48 PM 44.6 °F 40.7 °F 41.0 °F 87% 29.39 in 6.2 mi South 6.9 mph - N/A   Mostly Cloudy
5:55 PM 44.6 °F 40.7 °F 41.0 °F 87% 29.39 in 6.2 mi South 6.9 mph - N/A   Overcast
6:00 PM 44 °F - 41 °F 84% 29.41 in 28 mi South 6.7 mph - -   Partly Cloudy
6:25 PM 44.6 °F 40.7 °F 41.0 °F 87% 29.39 in 6.2 mi South 6.9 mph - N/A   Overcast
6:55 PM 44.6 °F 41.4 °F 41.0 °F 87% 29.39 in 6.2 mi South 5.8 mph - N/A   Overcast
7:00 PM 44 °F - 41 °F 85% 29.41 in 28 mi South 6.7 mph - -   Partly Cloudy
7:25 PM 44.6 °F 40.2 °F 41.0 °F 87% 29.39 in 6.2 mi South 8.1 mph - N/A   Overcast
7:51 PM 46.4 °F 41.9 °F 42.8 °F 87% 29.39 in 6.2 mi South 9.2 mph - N/A Rain Rain
7:55 PM 46.4 °F 41.9 °F 42.8 °F 87% 29.39 in 6.2 mi South 9.2 mph - N/A Rain Light Rain
8:00 PM 46 °F - 42 °F 83% 29.41 in 25 mi South 8.9 mph - - Rain Light Rain Showers
8:25 PM 46.4 °F 41.5 °F 42.8 °F 87% 29.39 in 6.2 mi South 10.4 mph - N/A   Overcast
8:55 PM 46.4 °F 41.5 °F 41.0 °F 81% 29.39 in 6.2 mi South 10.4 mph - N/A   Overcast
9:00 PM 47 °F - 42 °F 76% 29.41 in 25 mi South 11.2 mph - - Rain Rain
9:25 PM 46.4 °F 41.9 °F 41.0 °F 81% 29.39 in 6.2 mi South 9.2 mph 21.9 mph N/A   Mostly Cloudy
9:55 PM 46.4 °F 41.9 °F 41.0 °F 81% 29.39 in 6.2 mi South 9.2 mph - N/A   Mostly Cloudy
10:00 PM 46 °F - 42 °F 79% 29.41 in 28 mi South 8.9 mph - -   Partly Cloudy
10:06 PM 46.4 °F 41.9 °F 41.0 °F 81% 29.39 in 6.2 mi South 9.2 mph - N/A   Mostly Cloudy
10:10 PM 46.4 °F 42.4 °F 41.0 °F 81% 29.39 in 6.2 mi South 8.1 mph - N/A   Mostly Cloudy
10:25 PM 46.4 °F 41.5 °F 41.0 °F 81% 29.39 in 6.2 mi South 10.4 mph - N/A   Mostly Cloudy
10:41 PM 46.4 °F 41.9 °F 42.8 °F 87% 29.39 in 6.2 mi South 9.2 mph - N/A   Mostly Cloudy
10:47 PM 46.4 °F 41.9 °F 42.8 °F 87% 29.39 in 6.2 mi South 9.2 mph - N/A   Mostly Cloudy
10:55 PM 46.4 °F 41.5 °F 41.0 °F 81% 29.39 in 6.2 mi South 10.4 mph 23.0 mph N/A   Mostly Cloudy
11:00 PM 46 °F - 42 °F 80% 29.40 in 28 mi South 8.9 mph - -   Partly Cloudy
11:25 PM 46.4 °F 41.9 °F 41.0 °F 81% 29.39 in 6.2 mi South 9.2 mph - N/A   Mostly Cloudy
11:29 PM 46.4 °F 41.5 °F 41.0 °F 81% 29.39 in 6.2 mi South 10.4 mph 21.9 mph N/A   Mostly Cloudy
11:46 PM 46.4 °F 41.5 °F 41.0 °F 81% 29.39 in 6.2 mi South 10.4 mph - N/A   Partly Cloudy
11:48 PM 46.4 °F 41.1 °F 41.0 °F 81% 29.39 in 6.2 mi South 11.5 mph - N/A   Mostly Cloudy
11:55 PM 46.4 °F 41.1 °F 41.0 °F 81% 29.39 in 6.2 mi South 11.5 mph - N/A   Mostly Cloudy
11:59 PM 46.4 °F 41.1 °F 41.0 °F 81% 29.39 in 6.2 mi South 11.5 mph - N/A   Mostly Cloudy